Regional Weather Roundup
Issued by NWS

Home | Current Version | Previous Version | Text Only | Print | Product List | Glossary On
Versions: 1 2 3 4 5 6 7 8 9 10 11 12 13 14 15 16 17 18 19 20 21 22 23 24 25 26 27 28 29 30 31 32 33 34 35 36 37 38 39 40 41 42 43 44 45 46 47 48 49 50
000
ASUS46 KSTO 080415
RWRCA

NORTHERN AND CENTRAL CA REGIONAL WEATHER ROUNDUP
NATIONAL WEATHER SERVICE SACRAMENTO CA
800 PM PST WED DEC 07 2016

NOTE: FAIR INDICATES FEW OR NO CLOUDS BELOW 12,000 FEET WITH NO
SIGNIFICANT WEATHER AND/OR OBSTRUCTIONS TO VISIBILITY.

CAZ001-003-080500-
NORTHWEST AREA

CITY           SKY/WX    TMP DP  RH WIND       PRES   REMARKS
CRESCENT CITY  CLOUDY    41  35  79 CALM      29.96F
UKIAH          LGT RAIN  40  38  93 CALM      30.09S FOG
$$

CAZ006-505>513-080500-
BAY AREA

CITY           SKY/WX    TMP DP  RH WIND       PRES   REMARKS
SANTA ROSA     RAIN      41  39  93 E7        30.09F FOG
SAN RAFAEL     N/A       44  MM  MM MISG
NAPA           LGT RAIN  45  37  73 E6        30.14R
CONCORD        LGT RAIN  44  37  76 VRB6      30.14F
OAKLAND CITY   N/A       48  MM  MM MISG
OAKLAND        CLOUDY    48  41  76 E8        30.11S
SAN FRAN CITY  N/A       49  MM  72 MISG
SAN FRAN ARPT  LGT RAIN  47  42  83 SW3       30.10F
LIVERMORE      CLOUDY    44  37  76 E8        30.11F
HAYWARD        CLOUDY    48  36  63 NE9       30.10S
REDWOOD CITY   N/A       48  MM  85 MISG
MOFFETT ARPT   CLOUDY    52  40  63 SE6       30.10F
SAN JOSE ARPT  CLOUDY    52  40  63 E13       30.10F
$$
CAZ034-037-514>518-080500-
CENTRAL COAST

CITY           SKY/WX    TMP DP  RH WIND       PRES   REMARKS
WATSONVILLE    CLOUDY    50  43  77 CALM      30.13F
SALINAS        CLOUDY    51  39  63 SE12      30.11F
MONTEREY       CLOUDY    50  43  77 E5        30.11F
SAN LUIS OBISP CLOUDY    49  40  71 SE5       30.15S
SANTA MARIA    CLEAR     44  42  93 E7        30.16S
$$
CAZ015-016-080500-
NORTHERN SACRAMENTO VALLEY

CITY           SKY/WX    TMP DP  RH WIND       PRES   REMARKS
REDDING        LGT SNOW  34  33  96 CALM      30.20F FOG
RED BLUFF      LGT SNOW  33  32  96 NW3       30.22S FOG
OROVILLE       LGT RAIN  39  36  89 NW7G20    30.21R WCI  34
$$
CAZ016>018-080500-
SOUTHERN SACRAMENTO VALLEY

CITY           SKY/WX    TMP DP  RH WIND       PRES   REMARKS
AUBURN         MOCLDY    43  36  75 CALM      30.13F
BEALE AFB      DRIZZLE   40  40  99 N14       30.16F WCI  33
LINCOLN        CLOUDY    41  36  81 N3        30.16F
MARYSVILLE     CLOUDY    40  37  89 NW13      30.18S WCI  32
PLACERVILLE    CLOUDY    39  36  87 S6        30.13R WCI  35
SAC INTL ARPT  CLOUDY    42  39  89 NW12      30.17S
MATHER AIRPORT CLOUDY    45  39  81 CALM      30.16F
DOWNTOWN SAC   N/A       43  MM  MM MISG
SAC EXEC ARPT  CLOUDY    43  39  86 N6        30.17F
VACAVILLE      LGT RAIN  42  38  85 N14G20    30.18S
TRAVIS AFB     LGT RAIN  42  39  89 NE14      30.14S
$$
CAZ019>021-080500-
SAN JOAQUIN VALLEY

CITY           SKY/WX    TMP DP  RH WIND       PRES   REMARKS
STOCKTON       CLOUDY    47  42  83 E6        30.15S
MODESTO        LGT RAIN  48  40  73 CALM      30.16R
MERCED         CLOUDY    46  42  86 CALM      30.15S
LEMOORE        CLOUDY    46  40  79 S5        30.18S
FRESNO         CLOUDY    49  41  74 S5        30.17S
HANFORD        CLOUDY    47  43  86 CALM      30.19R
PORTERVILLE    CLEAR     42  39  89 E6        30.19R
BAKERSFIELD    PTCLDY    45  36  70 CALM      30.17S
$$
CAZ011-012-071-080500-
NORTHERN MOUNTAINS

CITY           SKY/WX    TMP DP  RH WIND       PRES   REMARKS
YREKA          LGT SNOW  27  24  89 N8        30.11F VSB 1   WCI  19
MOUNT SHASTA   LGT SNOW  28  26  92 CALM      30.08S FOG
ALTURAS        LGT SNOW  26  23  88 S13       30.08R VSB 3/4 WCI  15
$$
CAZ011-012-071-080500-
SIERRA NEVADA MTNS

CITY           SKY/WX    TMP DP  RH WIND       PRES   REMARKS
BLUE CANYON    LGT SNOW  30  27  88 SE10G18   30.06F VSB 3/4 WCI  21
TRUCKEE        LGT SNOW  27  25  93 CALM      30.05S
TAHOE VLY ARPT LGT SNOW  32  28  85 S9        30.02F FOG     WCI  24
MAMMOTH LAKES  CLOUDY    28  10  47 SE3       30.10F
$$




USA.gov is the U.S. government's official web portal to all federal, state and local government web resources and services.